This demonstration page uses our WeatherBlox Daily Observations layout. Learn more.

Left ArrowRight Arrow

Hourly Observations for December 31, 2015

Temp ( °F °C ) Dew Point ( °F °C ) Humidity (%) Winds ( mph kmh ) Pressure ( in mb ) Visibility ( mi km ) Precip ( " mm )
12:20 am 00:20 Mostly Cloudy with Mist and Fog 57 14 55 13 94 94 WNW 3 6 30.12 1020 4 6 0.00 0.00
12:23 am 00:23 Cloudy with Mist and Fog 58 14.4 56 13.3 93 93 NNW 5 7 30.12 1020 2 3 0.00 0.00
12:35 am 00:35 Cloudy with Mist and Fog 58 14.4 56 13.3 93 93 Calm 30.12 1020 3 5 0.00 0.00
12:53 am 00:53 Cloudy 58 14.4 56 13.3 93 93 Calm 30.11 1020 7 11 0.00 0.00
1:53 am 01:53 Cloudy with Mist and Fog 58 14.4 56 13.3 93 93 W 3 6 30.11 1020 6 10 0.00 0.00
2:46 am 02:46 Cloudy with Light Rain 57 14 55 13 94 94 NNW 3 6 30.12 1020 3 4 0.00 0.00
2:53 am 02:53 Cloudy with Light Rain 58 14.4 56 13.3 93 93 NNW 5 7 30.12 1020 2 3 0.01 0.25
3:05 am 03:05 Cloudy with Light Rain 57 13.9 55 12.8 93 93 NW 7 11 30.15 1021 4 6 0.01 0.25
3:53 am 03:53 Cloudy with Light Rain 56 13.3 54 12.2 93 93 NW 6 9 30.13 1020 3 5 0.01 0.25
4:53 am 04:53 Cloudy with Mist and Fog 56 13.3 53 11.7 90 90 Calm 30.12 1020 6 10 0.01 0.25
5:53 am 05:53 Cloudy 55 12.8 52 11.1 90 90 NNW 7 11 30.12 1020 7 11 0.00 0.03
6:21 am 06:21 Cloudy with Light Rain 55 12.8 52 11.1 90 90 N 5 7 30.15 1021 3 4 0.02 0.51
6:34 am 06:34 Cloudy with Light Rain 55 13 52 11 88 88 NNW 3 6 30.15 1021 4 6 0.00 0.00
6:53 am 06:53 Cloudy with Mist and Fog 54 12.2 52 11.1 93 93 NW 3 6 30.14 1021 6 10 0.02 0.51
7:26 am 07:26 Cloudy with Light Rain 53 11.7 50 10 89 89 NW 6 9 30.18 1022 7 11 0.00 0.03
7:53 am 07:53 Cloudy 53 11.7 49 9.4 86 86 VRB 3 6 30.15 1021 10 16 0.00 0.03
8:36 am 08:36 Cloudy 53 11.7 48 8.9 83 83 WNW 3 6 30.21 1023 10 16 0.00 0.00
8:53 am 08:53 Cloudy 53 11.7 49 9.4 86 86 WNW 6 9 30.17 1022 10 16 0.00 0.00
9:53 am 09:53 Cloudy 54 12.2 49 9.4 83 83 WNW 5 7 30.18 1022 10 16 0.00 0.00
10:53 am 10:53 Sunny 56 13.3 48 8.9 75 75 NNW 7 11 30.18 1022 10 16 0.00 0.00
11:53 am 11:53 Cloudy 58 14.4 49 9.4 72 72 NW 8 13 30.17 1022 10 16 0.00 0.00
12:53 pm 12:53 Sunny 58 14.4 47 8.3 67 67 WNW 9 15 30.15 1021 10 16 0.00 0.00
1:53 pm 13:53 Cloudy 59 15 46 7.8 62 62 WNW 7 11 30.13 1020 10 16 0.00 0.00
2:53 pm 14:53 Mostly Cloudy 60 15.6 46 7.8 60 60 NW 12 19 30.11 1020 10 16 0.00 0.00
3:53 pm 15:53 Sunny 60 15.6 46 7.8 60 60 NW 8 13 30.11 1020 10 16 0.00 0.00
4:53 pm 16:53 Sunny 58 14.4 45 7.2 62 62 WNW 9 15 30.13 1020 10 16 0.00 0.00
5:53 pm 17:53 Clear 54 12.2 44 6.7 69 69 NNW 9 15 30.16 1021 10 16 0.00 0.00
6:53 pm 18:53 Mostly Clear 52 11.1 42 5.6 69 69 NNW 6 9 30.18 1022 10 16 0.00 0.00
7:53 pm 19:53 Clear 51 10.6 41 5 69 69 NNW 8 13 30.20 1023 10 16 0.00 0.00
8:53 pm 20:53 Clear 50 10 41 5 71 71 N 3 6 30.19 1022 10 16 0.00 0.00
9:53 pm 21:53 Clear 49 9.4 40 4.4 71 71 NW 8 13 30.19 1022 10 16 0.00 0.00
10:53 pm 22:53 Clear 47 8.3 39 3.9 74 74 NW 10 17 30.19 1022 10 16 0.00 0.00
11:53 pm 23:53 Clear 45 7.2 38 3.3 77 77 VRB 5 7 30.19 1022 10 16 0.00 0.00

Powered by AerisWeather